This is the latest recevied weather packets stored in our database for station/object K7FLA. If no packets are shown the sender has not sent any weather packets the latest 10 day(s).
| Time | Temp. | Humidity | Pressure | Rain* | Wind** | Luminosity | Snow |
|---|---|---|---|---|---|---|---|
| 1788050040 | 34.44° C | 29% | 1093.1 hPa | 0 mm | - | 133 W/m² | - |
| 1788049737 | 35° C | 29% | 1093.1 hPa | 0 mm | - | 145 W/m² | - |
| 1788049433 | 35° C | 29% | 1093.3 hPa | 0 mm | - | 162 W/m² | - |
| 1788049128 | 35° C | 28% | 1093.2 hPa | 0 mm | - | 175 W/m² | - |
| 1788048823 | 35.56° C | 28% | 1093 hPa | 0 mm | - | 191 W/m² | - |
| 1788048523 | 35.56° C | 29% | 1093 hPa | 0 mm | - | 209 W/m² | - |
| 1788048221 | 35.56° C | 29% | 1093.1 hPa | 0 mm | - | 220 W/m² | - |
| 1788047918 | 36.11° C | 28% | 1093.1 hPa | 0 mm | - | 232 W/m² | - |
| 1788047614 | 36.11° C | 29% | 1093 hPa | 0 mm | - | 245 W/m² | - |
| 1788047313 | 36.11° C | 28% | 1093.1 hPa | 0 mm | - | 259 W/m² | - |
| 1788047008 | 36.11° C | 28% | 1093.1 hPa | 0 mm | - | 273 W/m² | - |
| 1788046708 | 36.67° C | 28% | 1093.1 hPa | 0 mm | - | 284 W/m² | - |
| 1788046402 | 36.67° C | 28% | 1093.2 hPa | 0 mm | - | 301 W/m² | - |
| 1788046100 | 36.67° C | 28% | 1093.1 hPa | 0 mm | - | 315 W/m² | - |
| 1788045795 | 36.67° C | 28% | 1092.8 hPa | 0 mm | - | 333 W/m² | - |
| 1788045491 | 36.67° C | 27% | 1092.7 hPa | 0 mm | - | 349 W/m² | - |
| 1788045186 | 36.67° C | 28% | 1093 hPa | 0 mm | - | 364 W/m² | - |
| 1788044882 | 37.22° C | 27% | 1093 hPa | 0 mm | - | 380 W/m² | - |
| 1788044575 | 37.22° C | 27% | 1093 hPa | 0 mm | - | 398 W/m² | - |
| 1788044274 | 37.78° C | 27% | 1093 hPa | 0 mm | - | 417 W/m² | - |
| 1788043971 | 37.78° C | 26% | 1093.2 hPa | 0 mm | - | 438 W/m² | - |
| 1788043665 | 37.22° C | 26% | 1093.1 hPa | 0 mm | - | 449 W/m² | - |
| 1788043361 | 37.22° C | 26% | 1093.2 hPa | 0 mm | - | 479 W/m² | - |
| 1788043060 | 37.22° C | 27% | 1093.1 hPa | 0 mm | - | 520 W/m² | - |
| 1788042756 | 37.22° C | 26% | 1093.1 hPa | 0 mm | - | 528 W/m² | - |
* Rain latest hour (hover to see other rain measurements)
** Current wind speed in m/s (hover to see current wind gust speed)